www.pogodaiklimat.ru

Погода и климат >> Архив погоды >> Аргентина >> Las Flores


ПОГОДА в Las Flores

  • Прогноз погоды в Las Flores
  • Монитор погоды в Las Flores
  • Климат города

АРХИВ ПОГОДЫ в Las Flores

Время (UTC), дата Ветер
(напр.,м/с)
 
Видим.   Явления Облачность Т
(С)
Тd
(С)
f
(%)
Тe
(С)
Тes
(С)
Комфортность P
(гПа)
Po
(гПа)
Тmin
(С)
Tmax
(С)
R
(мм)
R24
(мм)
S
(см)
00 18.05 СВ 2 15 км ясно +12.0 +9.2 83 +11 +11 1015.5 1011.0 +9.5 +18.8
09 18.05 СВ 1 15 км 10/10 750 м
[Frnb]
+11.4 +9.6 89 +11 +11 1014.2 1009.8
12 18.05 В 4 15 км 10/10 750 м
[Frnb]
+12.7 +1.0 45 +11 +11 1014.1 1000.9 +9.5 +12.7
15 18.05 В 3 6000 м слабая морось 10/10 750 м
[Frnb]
+15.3 +12.2 82 +15 +15 1013.4 1009.0
18 18.05 В 6 6000 м слабый дождь {морось} 10/10 750 м
[Frnb]
+17.0 +13.5 80 +16 +16 1009.5 1005.2 0.2
21 18.05 В 1 6000 м дождь 10/10 750 м
[Frnb]
+15.8 +13.7 87 +16 +16 1008.7 1004.4
00 19.05 В 1 6000 м дождь 10/10 750 м
[Frnb]
+16.2 +14.1 87 +17 +17 1008.8 1004.5 +12.6 +17.0 31
09 19.05 В 4 6000 м гроза, ливневой дождь 10/10 750 м
[Frnb]
+13.1 +11.4 89 +11 +11 1003.5 999.2
12 19.05 В 2 6000 м слабый дождь {гроза} 10/10 750 м
[Frnb]
+13.8 +11.8 88 +13 +13 1002.8 998.6 +13.0 +16.2 82
15 19.05 Ю 2 6000 м слабый дождь 10/10 750 м
[Frnb]
+14.6 +12.2 86 +14 +14 1002.6 998.4
18 19.05 ЮЗ 2 15 км 10/10 750 м
[Frnb]
+15.2 +10.5 74 +15 +15 1001.9 997.6 0.5
21 19.05 З 1 15 км 10/10 600 м
[Frnb]
+13.5 +10.5 82 +14 +14 1002.9 996.5
00 20.05 З 1 15 км 10/10 750 м
[Frnb]
+12.0 +9.0 82 +12 +12 1003.8 999.6 +11.9 +16.0
09 20.05 штиль 0 6000 м слабый дождь {морось} 10/10 750 м
[Frnb]
+9.7 +8.5 92 +9 +9 1005.4 1001.0
12 20.05 З 3 15 км {дождь} 10/10 750 м
[Frnb]
+9.2 +6.6 84 +7 +7 1007.7 1003.3 +8.8 +12.0 1
18 20.05 З 3 15 км 10/10 750 м
[Frnb]
+10.6 +4.9 68 +9 +9 1007.6 1003.3
21 20.05 З 1 15 км 10/10 750 м
[Frnb]
+10.2 +6.6 78 +10 +10 1007.4 1003.0
00 21.05 З 1 15 км 10/10 750 м
[Frnb]
+10.2 +7.3 82 +10 +10 1008.0 1003.6 +9.1 +11.8
09 21.05 штиль 0 <100 м туман 10/0
[]
+9.8 +9.0 95 +9 +9 1007.0 1002.6
12 21.05 З 1 200 м туман 10/10 750 м
[St]
+10.5 +8.5 87 +10 +10 1008.1 1003.8 +9.0 +10.5
15 21.05 З 2 6000 м слабая морось {туман} 10/10 750 м
[Frnb]
+12.1 +9.6 85 +11 +11 1008.4 1004.1
18 21.05 ЮЗ 4 15 км {морось} 8/6 750 м
[Frnb]
+14.8 +8.8 67 +14 +14 1007.4 1003.2 0.5
21 21.05 З 1 15 км 1/0
[Ci fib]
+14.8 +10.3 74 +15 +15 1007.4 1003.2
00 22.05 З 1 15 км ясно +13.2 +9.9 80 +13 +13 1009.8 1005.4 +10.4 +16.0
09 22.05 штиль 0 15 км ясно +9.6 +8.4 92 +9 +9 1015.3 1010.9
12 22.05 З 1 15 км 8/0
[Ac trans]
+11.2 +9.4 89 +11 +11 1017.5 1013.2 +9.0 +13.2 0.5
15 22.05 З 2 25 км 5/0
[Ci]
+18.8 +7.5 48 +20 +25 1017.5 1013.2
18 22.05 СЗ 2 15 км 5/0
[Ci]
+19.5 +4.5 37 +21 +24 комфорт 1016.6 1012.2
21 22.05 СВ 1 15 км 3/0
[Ci]
+16.8 +9.4 62 +18 +18 1016.3 1012.0
00 23.05 СВ 1 15 км 4/0
[Ci]
+14.2 +9.8 75 +15 +15 1016.5 1012.1 +11.1 +20.7
09 23.05 штиль 0 200 м туман местами ясно +11.6 +10.4 92 +11 +11 1018.5 1014.1
12 23.05 СВ 3 15 км {туман} 4/0
[]
+13.7 +10.7 82 +13 +13 1018.7 1014.4 +11.1 +14.2
15 23.05 СВ 2 15 км 4/0
[Ci]
+18.3 +11.2 63 +19 +24 1017.7 1013.4
18 23.05 СВ 2 15 км 4/1 750 м
[Cu hum Ci]
+20.6 +10.4 52 +23 +26 комфорт 1014.5 1010.2
21 23.05 СВ 1 15 км 3/1 750 м
[Cu hum Ci]
+18.2 +13.1 72 +20 +20 1012.9 1008.6
00 24.05 СВ 1 15 км ясно +14.4 +10.2 76 +15 +15 1013.0 1008.6 +13.6 +21.0
12 24.05 штиль 0 <100 м туман 10/0
[]
+11.7 +9.5 86 +11 +12 1013.9 1009.6 +10.2 +14.4
15 24.05 СВ 2 15 км {туман} 8/8 750 м
[Sc]
+13.6 +11.4 87 +13 +14 1013.9 1009.6
18 24.05 В 3 15 км 6/3 750 м
[Sc diur, vesp Ac trans]
+16.1 +11.3 73 +16 +17 1011.9 1007.6

 

Местоположение метеостанции Las Flores (Аргентина): широта -36.07 долгота -59.10 высота над уровнем моря 38 м.

В архиве по умолчанию представлена погода в Las Flores за последнюю неделю. Архивные данные за месяц целиком и за предыдущие месяцы, начиная с января 2011 года, Вы можете получить, выбрав интересующий диапазон дат из раскрывающегося списка и нажав кнопку "Ввод!".

Внимание! Время в таблицах - всемирное. Для получения местного времени необходимо прибавить поправку, которая в Las Flores равна -3 ч.

Смотрите также архив погоды в соседних городах и на ближайших метеорологических станциях:

Погода в Azul (Аргентина) (110 км)
Погода в Dolores (Аргентина) (127 км)
Погода в Tandil (Аргентина) (130 км)
Погода в Ezeiza (Аргентина) (149 км)
Погода в La Plata (Аргентина) (164 км)
Погода в Buenos Aires (Аргентина) (175 км)
Погода в Bolivar (Аргентина) (178 км)
Погода в Buenos Aires Aeropuerto (Аргентина) (179 км)
Погода в Colonia (Уругвай) (214 км)
Погода в Junin (Аргентина) (236 км)

Пояснения к столбцам:

Ветер - указаны скорость ветра в м/с - средняя за 10 мин, порывы в срок и между сроками (в фигурных скобках) и направление, откуда дует ветер: С - северный, СВ - северо-восточный, В - восточный, ЮВ - юго-восточный, Ю - южный, ЮЗ - юго-западный, З - западный, СЗ - северо-западный.
Видимость - горизонтальная дальность видимости в метрах или километрах. При видимости от 1 до 10 км при отсутствии осадков обычно наблюдается дымка, при ухудшении видимости до 1 км и менее - туман. В сухую погоду видимость может ухудшаться дымом, пылью или мглою.
Явления - указаны атмосферные явления, наблюдавшиеся в срок или в последний час перед сроком; фигурными скобками обозначены явления, наблюдавшиеся между сроками (за 1-3 часа до срока); квадратными скобками обозначены град или гололедные отложения с указанием их диаметра в мм.
Облачность - указаны через наклонную черту общая и нижняя облачность в баллах и высота нижней границы облаков в метрах; квадратными скобками обозначены формы облаков: Ci - перистые, Cs - перисто-слоистые, Cc - перисто-кучевые, Ac - высококучевые, As - высокослоистые, Sc - слоисто-кучевые, Ns - слоисто-дождевые, Cu - кучевые, Cb - кучево-дождевые. Подробнее классификацию облаков см. в Атласе облаков (PDF).
T - Температура воздуха - температура, измеренная на высоте 2 м над землей.
Td - Температура точки росы - температура, при понижении до которой содержащийся в воздухе водяной пар достигнет насыщения.
f - Относительная влажность воздуха - влажноcть воздуха, измеренная на высоте 2 м над землей.
Te - Эффективная температура - температура, которую ощущает одетый по сезону человек в тени. Характеристика душности погоды. При расчете учитывается влияние влажности воздуха и скорости ветра на теплоощущения человека.
Tes - Эффективная температура на солнце - температура, которую ощущает человек, с поправкой на солнечный нагрев. Характеристика знойности погоды. Зависит от высоты солнца над горизонтом, облачности и скорости ветра. Ночью, в пасмурную погоду, а также при ветре 12 м/с и более поправка равна нулю.
P - Атмосферное давление - приведенное к уровню моря атмосферное давление.
Po - Атмосферное давление - измеренное на уровне метеостанции атмосферное давление.
Tmin - Минимальная температура - минимум температуры воздуха на высоте 2 м над землей.
Tmax - Максимальная температура - максимум температуры воздуха на высоте 2 м над землей.
R - Количество осадков - Количество выпавших осадков за период времени, мм. При наведении курсора мыши на число - период времени, за который выпало указанное количество осадков.
R24 - Количество осадков - Количество выпавших осадков за 24 часа, мм.
S - Снежный покров - Высота снежного покрова, см. При наведении курсора мыши на число - состояние снежного покрова и степень покрытия местности в баллах.